Regional Weather Roundup
Issued by NWS San Diego, CA

Home | Current Version | Previous Version | Text Only | Print | Product List | Glossary On
Versions: 1 2 3 4 5 6 7 8 9 10 11 12 13 14 15 16 17 18 19 20 21 22 23 24 25 26 27 28 29 30 31 32 33 34 35 36 37 38 39 40 41 42 43 44 45 46 47 48 49 50
000
ASUS46 KSGX 210303
RWRSGX

SAN DIEGO HOURLY WEATHER ROUNDUP
NATIONAL WEATHER SERVICE SAN DIEGO CA
800 PM PDT SAT SEP 20 2014

NOTE: "FAIR" INDICATES FEW OR NO CLOUDS BELOW 12,000 FEET WITH NO
SIGNIFICANT WEATHER AND/OR OBSTRUCTIONS TO VISIBILITY.

CAZ042-043-060-061-PZZ750-775-210400-

GREATER SAN DIEGO AREA

CITY           SKY/WX    TMP DP  RH WIND       PRES   REMARKS
LINDBERGH FLD  PTCLDY    72  60  66 NW6       29.92R
POINT LOMA       N/A     69  61  76 W9          N/A
NATIONAL CITY    N/A     72  63  74 NW2       29.91S
CHULA VISTA      N/A     71  64  78 CALM      29.84R
IMPERIAL BEACH CLEAR     70  62  76 W5        29.92R
BROWN FIELD    CLEAR     67  60  78 W5        29.92R
MIRAMAR MCAS   PTCLDY    68  59  73 NW7       29.91S
MONTGOMERY FLD CLEAR     70  60  70 NW6       29.91S

$$

NORTH SAN DIEGO COUNTY

CITY           SKY/WX    TMP DP  RH WIND       PRES   REMARKS
CAMP PENDLETON CLEAR     69  60  73 SW5       29.90R
OCEANSIDE AP   CLEAR     69  60  73 CALM      29.90R
OCEANSIDE HBR    N/A     71  65  81 W5        29.93R
VISTA            N/A     69  62  78 CALM      29.89R
CARLSBAD       CLEAR     70  61  73 CALM      29.90S
DEL MAR          N/A     69  63  82 CALM      29.93R
LA JOLLA SCRIP   N/A     69  63  81 W2        29.88R
FALLBROOK        N/A     68  65  91 S1        29.90R
ESCONDIDO        N/A     70  62  75 W3        29.93R
SAN MARCOS       N/A     69  62  78 CALM      29.89R
POWAY            N/A     69  61  75 CALM      29.91R

$$

EAST SAN DIEGO COUNTY

CITY           SKY/WX    TMP DP  RH WIND       PRES   REMARKS
RAMONA         CLEAR     66  58  75 W7        29.93S
SANTEE LAKES     N/A     69  61  75 W3        29.91S
LA MESA          N/A     70  63  77 NW3       29.84S
JAMUL            N/A     67  61  79 CALM      29.89S
MT. LAGUNA OBS   N/A     56  48  73 SW3       29.69S
CAMPO            N/A     65  56  72 SW6       29.94R

$$

ORANGE COUNTY AND THE LOS ANGELES BASIN

CITY           SKY/WX    TMP DP  RH WIND       PRES   REMARKS
JOHN WAYNE AP  CLEAR     73  61  65 W3        29.91R
LAGUNA BEACH     N/A    N/A  18   0 CALM      29.86S
LAKE FOREST FR   N/A     67  58  74 W5        29.82R
SANTA ANA        N/A     71  64  77 CALM      29.86R
HUNTINGTON BCH   N/A     69  64  81 W5        29.93R
LOS ALAMITOS   FAIR      69  61  73 W6        29.90R
FULLERTON      CLEAR     72  61  68 W6        29.89R
LONG BEACH     CLEAR     71  60  68 NW9       29.90R
L.A. AP        PTCLDY    69  62  78 W10       29.91R
L.A. DOWNTOWN  CLEAR     69  58  67 W6        29.90R

$$

THE INLAND EMPIRE

CITY           SKY/WX    TMP DP  RH WIND       PRES   REMARKS
CORONA         CLEAR     71  61  70 W9        29.90R
CHINO          PTCLDY    71  61  70 W12       29.91R
ONTARIO        PTCLDY    73  60  63 SW9       29.91R
SAN BERNARDINO CLEAR     73  57  56 MISG      29.91R
RIVERSIDE AP   CLEAR     72  60  66 W8        29.90R
RIV CYN CREST    N/A     73  67  81 CALM      29.87S
MORENO VALLEY    N/A     73  65  76 W2        29.09S
MARCH ARB      CLEAR     72  60  67 W8        29.93R
HORSETHIEF CYN   N/A     72  57  58 W5        29.92R
PERRIS           N/A     73  62  68 NW5       29.89R
MENIFEE          N/A     74  61  64 S3        29.95S
HEMET EAST       N/A     73  48  41 CALM      29.88R
FRENCH VALLEY  FAIR      70  59  68 S6        29.93R
TEMECULA         N/A     71  62  74 S7        29.87S

$$

SAN BERNARDINO AND RIVERSIDE COUNTY MOUNTAINS

CITY           SKY/WX    TMP DP  RH WIND       PRES   REMARKS
BIG BEAR AP    CLEAR     59  48  67 CALM      30.16S
PINE COVE        N/A     56  49  77 CALM      29.75S

$$

SOUTHERN DESERT INCLUDING THE COACHELLA VALLEY

CITY           SKY/WX    TMP DP  RH WIND       PRES   REMARKS
PALM SPRINGS   CLEAR     90  56  31 NW21G29   29.77R
THOUSAND PALMS   N/A     87  58  36 W15       29.71S
PALM DESERT      N/A     90  59  35 CALM        N/A
THERMAL        CLEAR     91  58  32 NW13      29.70R
BLYTHE         CLEAR     95  51  22 S9        29.73R
IMPERIAL AP    CLEAR     89  57  33 W10       29.71R
EL CENTRO NAS  CLEAR     91  54  28 W17       29.71R
YUMA AZ        PTCLDY    91  55  29 S10       29.74R
MEXICALI       CLEAR     91  54  27 E9        29.72

$$

UPPER DESERT

CITY           SKY/WX    TMP DP  RH WIND       PRES   REMARKS
VICTORVILLE AP CLEAR     75  52  43 S14       29.92F
HESPERIA         N/A     73  54  51 W9        29.91S
APPLE VALLEY     N/A     74  51  44 S1G18     30.00R
PALMDALE       CLEAR     76  47  35 SW12G24   29.90R
LANCASTER      CLEAR     72  55  55 NW13      29.91R
EDWARDS AFB    CLEAR     78  51  38 W16       29.87R
DAGGETT        CLEAR     89  41  18 VRB5      29.83R
29 PALMS N     PTCLDY    85  49  28 SW8       29.91R
NEEDLES        CLEAR     97  55  24 SW8       29.77R HX  95

$$

REGIONAL REPORTS

CITY           SKY/WX    TMP DP  RH WIND       PRES   REMARKS
SANTA BARBARA  CLEAR     64  59  83 SW5       29.89S
SANDBERG       CLEAR     64  52  64 SW17      30.04R
MT. WILSON       N/A     61  34  36 SE7         N/A
LAS VEGAS NV   MOCLDY    89  44  20 SW8       29.81R THUNDER
PHOENIX AZ     MOCLDY    91  65  41 SE9       29.81R
TIJUANA        CLEAR     68  57  68 W8        29.93R

$$

OFFSHORE ISLANDS

CITY           SKY/WX    TMP DP  RH WIND       PRES   REMARKS
CATALINA ARPT  MOCLDY    61  58  90 W14       29.95R
SAN NICOLAS IS MOCLDY   N/A N/A N/A W9        29.92S

$$

MARINE AND OFFSHORE BUOY REPORTS

STATION/POSITION SKY/WX   TEMP    WIND        PRES    SWELL
                          AIR SEA DIR/SP/G            HT/PER/DIR
                          (F)     (DEG/KT/KT) (MB)    (FT/S/D)
TANNER BANKS               68 71  300/  8/ 10 1013.2R   3/220/14
S CLEMENTE BASIN           69 74  300/ 12/ 16 1012.7R   3/220/14
SAN NICOLAS IS.               70                N/A     3/180/13
SO. S. ROSA ISLA           67 69  310/ 12/ 16 1012.2R   3/14
W. S. BARBARA CH           64 65  320/ 14/ 17 1011.8S   3/290/ 9
M. S. BARBARA CH           65 68  260/ 10/ 10 1012.5R
S. MONICA BASIN            69 72  260/ 10/ 12 1011.9S   3/220/13
S PEDRO CHANNEL               74                N/A     2/220/11
DANA POINT                    72                N/A     2/200/13
CMP PENDLETON NS              71                N/A     2/210/13
OCEANSIDE OFFSHR              73                N/A     2/220/14
TORREY PINES OTR              72                N/A     2/210/13
LA JOLLA 1                 71 73  330/  3/  4 1012.8R
MISSION BAY BUOY              73                N/A     2/210/13
SAN DIEGO BAY                 76              1013.2R

$$



USA.gov is the U.S. government's official web portal to all federal, state and local government web resources and services.